DW9837 Weather Reports


Display with metric or nautical units.
time (UTC)temp
F
wind
direction
speed
MPH
gust
MPH
rain 1hr
in
rain 24hr
in
rain mn
in
humidity
%
barometer
mb
20260906083027 62 53 0.0 1.0 0.00 0.00 0.00 84 1012.7
20260906081539 62 58 0.0 1.0 0.00 0.00 0.00 84 1012.7
20260906080025 62 87 0.0 2.0 0.00 0.00 0.00 85 1012.7
20260906074524 62 27 0.0 1.0 0.00 0.00 0.00 84 1012.6
20260906073022 63 27 0.0 1.0 0.00 0.00 0.00 85 1012.5
20260906071519 63 59 0.0 1.0 0.00 0.00 0.00 83 1012.4
20260906070018 63 47 0.0 1.0 0.00 0.00 0.00 83 1012.6
20260906064517 63 50 0.0 1.0 0.00 0.00 0.00 82 1012.6
20260906063016 63 111 0.0 1.0 0.00 0.00 0.00 82 1012.4
20260906061514 63 12 0.0 2.0 0.00 0.00 0.00 81 1012.4
20260906060021 64 94 0.0 1.0 0.00 0.00 0.00 80 1012.6
20260906054510 64 98 0.0 1.0 0.00 0.00 0.00 81 1012.7
20260906053019 64 98 0.0 1.0 0.00 0.00 0.00 79 1012.6
20260906051507 64 113 0.0 1.0 0.00 0.00 0.00 79 1012.7
20260906050018 65 106 0.0 1.0 0.00 0.00 0.00 79 1013.0
20260906044503 65 74 1.0 4.0 0.00 0.00 0.00 78 1013.1
20260906043002 65 73 0.0 3.0 0.00 0.00 0.00 79 1012.8
20260906041559 65 98 0.0 3.0 0.00 0.00 0.00 80 1012.7
20260906040057 65 99 1.0 2.0 0.00 0.00 0.00 83 1012.6
20260906034556 65 87 0.0 2.0 0.00 0.00 0.00 83 1012.6
20260906033055 65 106 0.0 3.0 0.00 0.00 0.00 84 1012.5
20260906031601 65 113 0.0 3.0 0.00 0.00 0.00 84 1012.5
20260906030054 65 94 0.0 6.0 0.00 0.00 0.00 84 1012.5
20260906024553 65 98 0.0 3.0 0.00 0.00 0.00 84 1012.5
20260906023053 66 83 1.0 3.0 0.00 0.00 0.00 84 1012.5
20260906021552 66 99 0.0 2.0 0.00 0.00 0.00 84 1012.5
20260906020100 66 20 0.0 4.0 0.00 0.00 0.00 84 1012.4
20260906014551 66 105 0.0 4.0 0.00 0.00 0.00 85 1012.4
20260906013050 66 19 0.0 3.0 0.00 0.00 0.00 85 1012.3
20260906011550 67 59 1.0 6.0 0.00 0.00 0.00 84 1012.1
20260906010048 67 73 1.0 6.0 0.00 0.00 0.00 85 1012.2
20260906004547 67 109 0.0 4.0 0.00 0.00 0.00 86 1011.9
20260906003046 67 79 0.0 1.0 0.00 0.00 0.00 88 1011.8
20260906001545 67 79 0.0 1.0 0.00 0.00 0.00 88 1011.8
20260906000045 67 80 0.0 2.0 0.00 0.00 0.00 88 1011.7
20260905234543 67 161 0.0 0.0 0.00 0.00 0.00 88 1011.4
20260905233044 67 161 0.0 0.0 0.00 0.00 0.00 86 1011.3
20260905231540 68 137 0.0 1.0 0.00 0.00 0.00 86 1011.2
20260905230048 68 178 1.0 2.0 0.00 0.00 0.00 85 1011.0
20260905224557 68 144 0.0 3.0 0.00 0.00 0.00 84 1011.2
20260905223037 69 182 1.0 5.0 0.00 0.00 0.00 84 1011.0
20260905221547 69 148 0.0 4.0 0.00 0.00 0.00 83 1011.0
20260905220040 70 156 2.0 5.0 0.00 0.00 0.00 84 1011.0
20260905214534 69 96 3.0 6.0 0.00 0.00 0.00 83 1010.8
20260905213032 70 272 2.0 5.0 0.00 0.00 0.00 82 1010.5
20260905211530 71 226 1.0 4.0 0.00 0.00 0.00 79 1010.4
20260905210029 72 142 1.0 4.0 0.00 0.00 0.00 75 1010.2
20260905204527 74 236 2.0 6.0 0.00 0.00 0.00 70 1009.9
20260905203028 74 184 3.0 9.0 0.00 0.00 0.00 66 1009.8
20260905201526 72 121 2.0 5.0 0.00 0.00 0.00 71 1009.7
20260905200026 73 227 2.0 7.0 0.00 0.00 0.00 73 1009.7
20260905194524 73 113 0.0 5.0 0.00 0.00 0.00 74 1009.6
20260905193027 73 176 2.0 6.0 0.00 0.00 0.00 73 1009.6
20260905191523 74 151 3.0 7.0 0.00 0.00 0.00 69 1009.6
20260905190022 75 105 2.0 5.0 0.00 0.00 0.00 69 1009.3
20260905184525 78 107 1.0 6.0 0.00 0.00 0.00 59 1009.4
20260905183020 78 72 2.0 7.0 0.00 0.00 0.00 61 1009.4
20260905181519 76 158 1.0 8.0 0.00 0.00 0.00 64 1009.6
20260905180018 76 47 1.0 5.0 0.00 0.00 0.00 65 1009.6
20260905174521 77 102 1.0 7.0 0.00 0.00 0.00 62 1009.5
20260905173024 78 92 2.0 6.0 0.00 0.00 0.00 60 1009.4
20260905171524 80 21 1.0 6.0 0.00 0.00 0.00 56 1009.2
20260905170012 79 37 0.0 8.0 0.00 0.00 0.00 58 1009.2
20260905164511 80 11 1.0 5.0 0.00 0.00 0.00 57 1009.1
20260905163010 79 313 1.0 6.0 0.00 0.00 0.00 60 1009.2
20260905161508 80 9 1.0 4.0 0.00 0.00 0.00 60 1009.1
20260905160137 78 102 1.0 9.0 0.00 0.00 0.00 61 1009.1
20260905154504 78 53 2.0 9.0 0.00 0.00 0.00 63 1009.1
20260905153002 77 349 0.0 3.0 0.00 0.00 0.00 62 1009.1
20260905151607 77 47 3.0 10.0 0.00 0.00 0.00 64 1009.2
20260905150058 77 5 1.0 7.0 0.00 0.00 0.00 63 1009.0
20260905144558 76 9 0.0 3.0 0.00 0.00 0.00 63 1008.8
20260905143055 76 58 1.0 5.0 0.00 0.00 0.00 63 1008.9
20260905141552 75 82 1.0 7.0 0.00 0.00 0.00 65 1009.0
20260905140049 75 141 1.0 8.0 0.00 0.00 0.00 65 1009.1
20260905134545 74 59 1.0 6.0 0.00 0.00 0.00 66 1009.2
20260905133043 74 33 1.0 4.0 0.00 0.00 0.00 66 1009.1
20260905131540 73 53 0.0 5.0 0.00 0.00 0.00 68 1009.2
20260905130037 73 37 0.0 3.0 0.00 0.00 0.00 71 1009.3
20260905124539 71 341 0.0 2.0 0.00 0.00 0.00 71 1009.5
20260905123028 70 39 0.0 2.0 0.00 0.00 0.00 74 1009.5
20260905121525 68 19 0.0 2.0 0.00 0.00 0.00 76 1009.4
20260905120023 67 37 0.0 1.0 0.00 0.00 0.00 80 1009.3
20260905114523 66 105 0.0 1.0 0.00 0.00 0.00 81 1009.3
20260905113022 65 51 0.0 0.0 0.00 0.00 0.00 85 1009.1
20260905111520 63 51 0.0 0.0 0.00 0.00 0.00 88 1009.0
20260905110019 62 50 0.0 0.0 0.00 0.00 0.00 90 1009.0
20260905104517 62 50 0.0 0.0 0.00 0.00 0.00 90 1008.9
20260905103022 61 50 0.0 0.0 0.00 0.00 0.00 90 1008.8
20260905101512 61 50 0.0 0.0 0.00 0.00 0.00 90 1008.5
20260905100010 62 50 0.0 0.0 0.00 0.00 0.00 89 1008.7
20260905094609 62 50 0.0 0.0 0.00 0.36 0.00 89 1008.5
20260905093007 62 50 0.0 0.0 0.00 0.36 0.00 88 1008.4
20260905091511 62 50 0.0 0.0 0.00 0.36 0.00 88 1008.4
20260905090003 63 50 0.0 0.0 0.00 0.38 0.00 87 1008.5
20260905084609 63 50 0.0 0.0 0.00 0.38 0.00 87 1008.4